Погода в Балашове

Хотите узнать прогноз погоды в Балашове? Тогда Вам сюда: Погода в Балашове

Поиск расширенной информации на нашем сайте:

Полезная информация:

Новости сайта



02.01.2020
Опубликован Долгосрочный прогноз погоды по городам России и ближнего зарубежья на январь 2020 года.
Карты: Прогноз на январь и февраль 2020 года, Сравнение прогнозируемой аномалии приземной температуры воздуха на январь 2020 года по разным моделям.




Погода в Балашове - сегодня

Время (UTC), дата Ветер
(°,м/с) 
Видим.   Явления Облачность Т
(°С)
Тd
(°С)
f(%) Тe
(°С)
Pmin
(гПа)
dP
(гПа)
Po
(мм)
O2
(г/м3)
Тmin Tmax R s Состояние
почвы
15 27.03.20 070 (В) 20000 м    10/0 средняя, верхняя 
[Ac trans|Ci sp]
+12.4 +2.3 50 +12  1028.8  -0.9  757  292    +15.9       
18 27.03.20 080 (В) 20000 м    ясно 
+8.1 +1.4 63 +8  1028.9  -0.2  757  296           
21 27.03.20 120 (ЮВ) 20000 м    ясно 
+6.2 +0.1 65 +5  1029.4  0.4  757  298           
00 28.03.20 090 (В) 20000 м    ясно 
+4.5 -0.9 68 +3  1029  -0.5  757  300           
03 28.03.20 100 (В) 20000 м    9/0 средняя 
[Ac trans]
+2.9 -1 75 +2  1028.5  -0.5  757  302  +2.9        влажная 
06 28.03.20 100 (В) 20000 м    10/0 средняя, верхняя 
[Ac inh|Ci]
+7.4 +0.3 61 +7  1027.6  -0.6  756  297  +2.8         
09 28.03.20 100 (В) 20000 м    10/0 верхняя 
[Cc]
+12.8 -2.9 33 +13  1026  -1.2  755  291           
12 28.03.20 100 (В) 4{10}  20000 м    1/0 верхняя 
[Cc]
+15.3 +0.2 36 +15  1022.9  -2.9  753  287           
15 28.03.20 100 (В) 20000 м    ясно 
+13.5 +2.2 46 +14  1021.2  -1.7  752  288    +15.4       
18 28.03.20 100 (В) 20000 м    ясно 
+8.7 +2.4 65 +8  1020.9  -0.6  751  293           
21 28.03.20 120 (ЮВ) 20000 м    ясно 
+5.5 +2.3 80 +4  1019.8  -1.3  750  296           
00 29.03.20 120 (ЮВ) 20000 м    ясно 
+3.9 +0.5 78 +3  1018.8  -1.1  749  298           
03 29.03.20 130 (ЮВ) 20000 м    1/0 верхняя 
[Ci fib]
+3.6 -1.3 70 +2  1018.2  -0.6  749  298  +3.2        замёрзшая 
06 29.03.20 150 (ЮВ) 20000 м    4/0 верхняя 
[Ci fib]
+9.1 -1.8 46 +9  1017.5  -0.3  749  292           
09 29.03.20 150 (ЮВ) 5-10{10}  20000 м    6/0 верхняя 
[Ci fib]
+16.3 -9.9 16 +16  1014.7  -2.3  747  285           
12 29.03.20 170 (Ю) 4-10{10}  20000 м    6/0 верхняя 
[Ci fib]
+18.1 -9.6 14 +18  1012  -2.5  745  282           
15 29.03.20 120 (ЮВ) 2{11}  20000 м    9/0 верхняя 
[Ci fib]
+15 -7 21 +16  1010.4  -1.8  744  285    +18.6       
18 29.03.20 120 (ЮВ) 20000 м    3/0 верхняя 
[Ci fib]
+10.7 -6 30 +10  1010.4  -0.3  744  289           
21 29.03.20 130 (ЮВ) 20000 м    ясно 
+6.4 -5.9 41 +5  1009.8  -0.8  743  293           
00 30.03.20 130 (ЮВ) 20000 м    3/0 верхняя 
[Ci fib]
+4.3 -6.3 46 +4  1009.2  -0.8  742  295           
03 30.03.20 120 (ЮВ) 20000 м    3/0 верхняя 
[Ci fib]
+4.2 -7.1 44 +3  1007.7  -1.4  741  295  +3.4        замёрзшая 
06 30.03.20 130 (ЮВ) 20000 м    6/0 верхняя 
[Ci fib]
+9.8 -3.9 38 +9  1006.6  -0.8  741  289           
09 30.03.20 160 (Ю) 4-10{10}  20000 м    10/0 верхняя 
[Ci fib]
+18.4 -5.5 19 +19  1004.5  -1.5  740  280           
12 30.03.20 160 (Ю) 5-12{13}  20000 м    10/0 верхняя 
[Ci fib]
+19.8 -7.2 15 +20  1003.1  -1.3  739  278           
15 30.03.20 150 (ЮВ) 2{12}  20000 м    10/0 средняя, верхняя 
[Ac trans|Ci fib]
+15.6 -6.5 21 +16  1002.5  -0.8  738  282    +20.2       
Время (UTC), дата Ветер
(°,м/с) 
Видим.   Явления Облачность Т
(°С)
Тd
(°С)
f(%) Тe
(°С)
Pmin
(гПа)
dP
(гПа)
Po
(мм)
O2
(г/м3)
Тmin Tmax R s Состояние
почвы

Для получения пояснительной информации подведите курсор к названию столбца.

ПОГОДА в Балашове - архив

Всё, что Вы хотите узнать о погоде в Балашове - удобно и подробно!

Выберите нужную дату (начиная с 1 января 2019* года) и нажмите кнопку "Найти".
Будут отображены архивные сводки погоды по пункту Балашов, начиная с указанной даты.


Отображать данные в формате CSV (для использования в таблицах Excel)


Внимание! Наш архив погоды предназначен исключительно для личного некоммерческого использования в познавательных целях. Если Вам необходимы официальные справки о состоянии погоды (для производственных, юридических, коммерческих и т.п. целей), обращайтесь в органы Росгидромета.

*Примечание: данная дата относится к архиву по метеостанциям СССР (Россия, СНГ, Балтия).
Архив по метеостанциям Зарубежной Европы и Азии (кроме Китая) хранится 10 дней, по другим регионам земного шара (Китай, Африка, Америка, Австралия, Океания) - 1 день.

Балашов - район местоположения метеостанции


Название, широта, долгота, высота метеостанции:
Балашов 51.6°ш. 43.2°д. 159 м над ур. моря [Российская Федерация]

Дополнительная информация

В oтличие oт бoльшинства пoгoдных сайтoв мы публикуем пoдрoбную метеoинфoрмацию в детальнoм прoфессиoнальнoм фoрмате.

Характеристики температуры и влажнoсти вoздуха измеряются на высoте 2 м в тени вдали oт зданий и деревьев.
Скoрoсть ветра измеряется на высoте 10 м (на урoвне рoста челoвека скoрoсть ветра ниже в 1.5-2 раза). Если метеoстанция нахoдится в гoрoде или в лесу, тo скoрoсть ветра занижена на 2-4 м/с пo сравнению с oткрытым местoм. Скoрoсть ветра над акватoриями крупных рек и oзёр, а также на вершинах хoлмoв на 2-5 м/с выше, чем в oбычных услoвиях.
Атмoсфернoе давление в разных тoчках местнoсти мoжет значительнo oтличаться oт давления на метеoстанции, в зависимoсти oт услoвий рельефа (при пoдъёме на 10 м давление пoнижается примернo на 1 мм рт.ст.).